Location: Chervonnoye
(48.6000°N, 34.4000°E)
Time: 11:03:18
(UTC+00:00)

X-37B - Visible Passes

Search period start: 27 September 2021 00:00
Search period end: 07 October 2021 00:00
Orbit: 381 x 393 km, 45.0° (Epoch: 29 August)

Date Brightness Start Highest point End Pass type
(mag) Time Alt. Az. Time Alt. Az. Time Alt. Az.
27 Sep 1.4 01:49:04 37° S 01:49:09 37° S 01:52:07 10° E visible
28 Sep 3.7 00:53:20 12° ESE 00:53:20 12° ESE 00:53:42 10° E visible
28 Sep 1.2 02:25:37 23° WSW 02:27:12 43° S 02:30:13 10° ESE visible
29 Sep 2.1 01:29:55 31° SE 01:29:55 31° SE 01:31:55 10° ESE visible
29 Sep 1.7 03:02:21 10° W 03:05:13 32° SSW 03:08:06 10° SE visible
30 Sep 1.2 02:06:32 36° SSW 02:06:57 39° S 02:09:56 10° ESE visible
01 Oct 3.3 01:10:54 16° ESE 01:10:54 16° ESE 01:11:41 10° ESE visible
01 Oct 2.0 02:43:12 16° WSW 02:44:55 24° SSW 02:47:33 10° SE visible
02 Oct 2.2 01:47:40 26° SSE 01:47:40 26° SSE 01:49:33 10° SE visible
03 Oct 2.4 02:24:30 17° SSW 02:24:35 17° SSW 02:26:44 10° SSE visible
